Date String (YYYY-MM-DD hh:mm:ss) UTC,Instrument flags,absolute air pressure of the measurement (hPa),sample flow rate (lpm),inlet stack bypass flow (lpm),air temperature of the measurement (°C),ambient temperature measured by the external sensor (°C),aerosol sample conditioner tube jacket temperature (°C),OPC LED temperature (°C),internal box temperature (°C),relative humidity of the measurement (%),span deviation,mass concentration of particles derived from Lorenz-Mie calculation of OPC scattering (μg/m³),mass concentration of particles derived from Lorenz-Mie calculation of OPC scattering (μg/m³),mass concentration of particles derived from Lorenz-Mie calculation of OPC scattering (μg/m³)
DateTimeUTC,F1_M11,P_M11,Q1_M11,Q2_M11,T1_M11,T2_M11,T3_M11,T4_M11,T5_M11,U1_M11,ZSPAN_M11,X0_M11,X2_M11,X1_M11
2024-04-05 01:00:00,SystemResetWarning,0822.0,5.00,000.00,025.3,023.7,000.0,033.5,026.5,010.3,0000.0,0011.11,0002.85,0001.90
2024-04-05 01:01:00,SystemResetWarning,0822.0,5.01,000.00,024.9,022.2,000.0,033.5,025.7,010.7,0000.0,0011.09,0002.87,0001.90
2024-04-05 01:02:00,SystemResetWarning,0822.0,5.01,000.00,024.7,022.3,000.0,033.4,025.7,011.0,0000.0,0011.77,0002.91,0001.90
2024-04-05 01:03:00,SystemResetWarning,0822.0,4.99,000.00,024.7,022.6,000.0,033.3,026.0,011.2,0000.0,0011.97,0002.87,0001.89
2024-04-05 01:04:00,SystemResetWarning,0822.0,5.00,000.00,024.7,023.0,000.0,033.3,026.2,011.5,0000.0,0011.74,0002.81,0001.88
2024-04-05 01:05:00,SystemResetWarning,0822.1,5.00,000.00,024.7,023.4,000.0,033.2,026.4,011.8,0000.0,0011.50,0002.81,0001.88
2024-04-05 01:06:00,SystemResetWarning,0822.1,5.00,000.00,024.8,023.7,000.0,033.2,026.5,012.1,0000.0,0011.69,0002.86,0001.87
2024-04-05 01:07:00,SystemResetWarning,0822.1,4.99,000.00,024.9,024.0,000.0,033.2,026.7,011.6,0000.0,0012.09,0002.86,0001.85
2024-04-05 01:08:00,SystemResetWarning,0822.1,5.00,000.00,024.9,024.2,000.0,033.2,026.8,011.5,0000.0,0011.47,0002.88,0001.84
2024-04-05 01:09:00,SystemResetWarning,0822.1,5.00,000.00,025.0,024.4,000.0,033.2,026.8,011.3,0000.0,0011.77,0002.82,0001.83
2024-04-05 01:10:00,SystemResetWarning,0822.1,5.00,000.00,025.1,024.5,000.0,033.3,026.9,011.1,0000.0,0011.65,0002.81,0001.82
2024-04-05 01:11:00,SystemResetWarning,0822.1,5.00,000.00,025.1,024.6,000.0,033.3,027.0,010.7,0000.0,0011.67,0002.86,0001.82
2024-04-05 01:12:00,SystemResetWarning,0822.1,5.00,000.00,025.2,024.7,000.0,033.3,027.1,010.6,0000.0,0012.02,0002.84,0001.82
2024-04-05 01:13:00,SystemResetWarning,0822.0,5.00,000.00,025.2,024.8,000.0,033.3,027.2,010.5,0000.0,0011.20,0002.81,0001.82
2024-04-05 01:14:00,SystemResetWarning,0822.0,5.00,000.00,025.3,024.9,000.0,033.4,027.2,010.4,0000.0,0010.92,0002.82,0001.81
2024-04-05 01:15:00,SystemResetWarning,0822.0,4.99,000.00,025.4,025.0,000.0,033.4,027.3,010.2,0000.0,0010.78,0002.89,0001.82
2024-04-05 01:16:00,SystemResetWarning,0822.1,5.00,000.00,025.4,025.1,000.0,033.5,027.3,010.1,0000.0,0010.64,0002.87,0001.82
2024-04-05 01:17:00,SystemResetWarning,0822.0,4.98,000.00,025.3,023.8,000.0,033.6,026.6,010.2,0000.0,0010.51,0002.86,0001.82
2024-04-05 01:18:00,SystemResetWarning,0821.9,5.01,000.00,024.9,022.2,000.0,033.6,025.6,010.4,0000.0,0010.10,0002.90,0001.83
2024-04-05 01:19:00,SystemResetWarning,0821.9,5.01,000.00,024.7,022.2,000.0,033.5,025.6,010.6,0000.0,0010.87,0002.92,0001.84
2024-04-05 01:20:00,SystemResetWarning,0822.0,4.99,000.00,024.7,022.5,000.0,033.4,025.9,010.6,0000.0,0010.51,0002.91,0001.84
2024-04-05 01:21:00,SystemResetWarning,0822.0,5.00,000.00,024.7,022.9,000.0,033.3,026.2,010.5,0000.0,0009.74,0002.96,0001.85
2024-04-05 01:22:00,SystemResetWarning,0822.0,5.00,000.00,024.7,023.2,000.0,033.3,026.3,010.5,0000.0,0009.95,0002.94,0001.85
2024-04-05 01:23:00,SystemResetWarning,0822.0,5.00,000.00,024.7,023.5,000.0,033.2,026.5,010.5,0000.0,0009.98,0002.91,0001.85
2024-04-05 01:24:00,SystemResetWarning,0822.0,5.01,000.00,024.8,023.8,000.0,033.2,026.6,010.5,0000.0,0009.94,0002.93,0001.85
2024-04-05 01:25:00,SystemResetWarning,0822.0,4.99,000.00,024.9,024.0,000.0,033.2,026.7,010.4,0000.0,0010.07,0002.93,0001.85
2024-04-05 01:26:00,SystemResetWarning,0822.0,4.98,000.00,024.9,024.2,000.0,033.2,026.8,010.3,0000.0,0010.30,0002.93,0001.85
2024-04-05 01:27:00,SystemResetWarning,0822.0,5.00,000.00,025.0,024.4,000.0,033.2,026.9,010.3,0000.0,0010.64,0002.95,0001.84
2024-04-05 01:28:00,SystemResetWarning,0822.0,5.02,000.00,025.0,024.5,000.0,033.3,026.9,010.3,0000.0,0010.55,0002.94,0001.83
2024-04-05 01:29:00,SystemResetWarning,0822.0,4.99,000.00,025.1,024.6,000.0,033.3,027.0,010.2,0000.0,0011.25,0002.95,0001.84
2024-04-05 01:30:00,SystemResetWarning,0821.9,4.99,000.00,025.2,024.7,000.0,033.3,027.1,010.2,0000.0,0010.51,0002.93,0001.84
2024-04-05 01:31:00,SystemResetWarning,0822.0,5.00,000.00,025.2,024.8,000.0,033.4,027.1,010.2,0000.0,0011.26,0002.98,0001.84
2024-04-05 01:32:00,SystemResetWarning,0822.0,5.00,000.00,025.3,024.9,000.0,033.4,027.2,010.1,0000.0,0011.35,0003.00,0001.84
2024-04-05 01:33:00,SystemResetWarning,0822.0,5.01,000.00,025.3,024.9,000.0,033.4,027.2,010.1,0000.0,0011.17,0002.99,0001.85
2024-04-05 01:34:00,SystemResetWarning,0822.0,5.00,000.00,025.4,025.0,000.0,033.5,027.3,010.0,0000.0,0011.14,0002.95,0001.85
2024-04-05 01:35:00,SystemResetWarning,0822.0,4.99,000.00,025.4,025.1,000.0,033.5,027.4,010.1,0000.0,0012.12,0003.01,0001.85
2024-04-05 01:36:00,SystemResetWarning,0822.0,5.00,000.00,025.4,024.2,000.0,033.6,026.8,010.0,0000.0,0012.48,0003.09,0001.86
2024-04-05 01:37:00,SystemResetWarning,0821.9,5.01,000.00,025.0,022.2,000.0,033.6,025.7,010.1,0000.0,0012.24,0003.10,0001.86
2024-04-05 01:38:00,SystemResetWarning,0821.9,5.02,000.00,024.7,022.0,000.0,033.6,025.5,010.3,0000.0,0012.60,0003.09,0001.85
2024-04-05 01:39:00,SystemResetWarning,0821.9,4.99,000.00,024.6,022.3,000.0,033.5,025.8,010.3,0000.0,0012.56,0003.06,0001.86
2024-04-05 01:40:00,SystemResetWarning,0822.0,5.01,000.00,024.6,022.7,000.0,033.4,026.0,010.4,0000.0,0011.99,0002.97,0001.85
2024-04-05 01:41:00,SystemResetWarning,0822.0,5.00,000.00,024.6,023.1,000.0,033.3,026.2,010.3,0000.0,0012.87,0002.99,0001.87
2024-04-05 01:42:00,SystemResetWarning,0822.0,4.99,000.00,024.7,023.4,000.0,033.3,026.4,010.2,0000.0,0012.64,0002.92,0001.87
2024-04-05 01:43:00,SystemResetWarning,0822.0,4.99,000.00,024.7,023.7,000.0,033.2,026.5,010.2,0000.0,0012.46,0002.84,0001.86
2024-04-05 01:44:00,SystemResetWarning,0822.0,5.00,000.00,024.8,023.9,000.0,033.2,026.6,010.2,0000.0,0012.39,0002.83,0001.84
2024-04-05 01:45:00,SystemResetWarning,0822.0,5.01,000.00,024.8,024.1,000.0,033.2,026.7,010.2,0000.0,0012.23,0002.93,0001.86
2024-04-05 01:46:00,SystemResetWarning,0822.0,5.00,000.00,024.9,024.2,000.0,033.2,026.8,010.2,0000.0,0011.68,0002.89,0001.86
2024-04-05 01:47:00,SystemResetWarning,0822.0,5.00,000.00,025.0,024.4,000.0,033.3,026.8,010.2,0000.0,0011.54,0002.79,0001.85
2024-04-05 01:48:00,SystemResetWarning,0822.0,5.00,000.00,025.0,024.5,000.0,033.3,026.9,010.1,0000.0,0011.16,0002.69,0001.85
2024-04-05 01:49:00,SystemResetWarning,0822.0,5.00,000.00,025.1,024.6,000.0,033.3,027.0,010.2,0000.0,0010.80,0002.66,0001.85
2024-04-05 01:50:00,SystemResetWarning,0822.0,5.00,000.00,025.1,024.7,000.0,033.3,027.0,010.1,0000.0,0011.49,0002.65,0001.85
2024-04-05 01:51:00,SystemResetWarning,0822.0,5.00,000.00,025.2,024.7,000.0,033.4,027.1,010.1,0000.0,0011.30,0002.70,0001.86
2024-04-05 01:52:00,SystemResetWarning,0822.0,5.00,000.00,025.2,024.8,000.0,033.4,027.2,010.1,0000.0,0010.39,0002.68,0001.84
2024-04-05 01:53:00,SystemResetWarning,0822.0,5.00,000.00,025.3,024.9,000.0,033.4,027.2,010.1,0000.0,0010.28,0002.73,0001.84
2024-04-05 01:54:00,SystemResetWarning,0822.0,5.00,000.00,025.3,024.9,000.0,033.5,027.3,010.1,0000.0,0010.18,0002.77,0001.86
2024-04-05 01:55:00,SystemResetWarning,0821.9,5.00,000.00,025.4,025.0,000.0,033.5,027.3,010.1,0000.0,0009.89,0002.77,0001.87
2024-04-05 01:56:00,SystemResetWarning,0822.0,4.99,000.00,025.4,025.0,000.0,033.6,027.3,010.1,0000.0,0010.28,0002.73,0001.85
2024-04-05 01:57:00,SystemResetWarning,0822.0,5.00,000.00,025.5,025.0,000.0,033.6,027.4,010.1,0000.0,0010.52,0002.76,0001.87
2024-04-05 01:58:00,SystemResetWarning,0822.0,5.01,000.00,025.5,025.1,000.0,033.6,027.4,010.0,0000.0,0011.08,0002.78,0001.87
2024-04-05 01:59:00,SystemResetWarning,0822.0,5.01,000.00,025.5,024.9,000.0,033.7,027.3,010.1,0000.0,0011.66,0002.87,0001.88
